{"data":{"norad_id":66752,"epoch":"2026-05-25T03:36:34.655904Z","epoch_age_seconds":52128,"freshness":"FRESH","line1":"1 66752U 25276CQ  26145.15040111  .00001748  00000+0  14492-3 0  9991","line2":"2 66752  97.4191 217.4514 0002719  90.1056 270.0480 15.00031966 26812","mean_motion":15.00031966,"eccentricity":0.0002719,"inclination_deg":97.4191,"raan_deg":217.4514,"arg_perigee_deg":90.1056,"mean_anomaly_deg":270.048,"bstar":0.00014492,"rev_number":2681,"period_min":95.997954219597,"perigee_km":564.9093508062,"apogee_km":568.68600628439,"semimajor_km":6944.9346785453,"source":"CELESTRAK","updated_at":"2026-05-25T13:38:06.451855Z"}}